,,PA_Meas_PMT16A,,PR_Meas_QMR101_102,,RH_Meas_QMH101,,SR_Meas_QMS101,,TA_Meas_QMH101,,GenWind,,GenWind,
time,status,PA,status,PR,status,RH,status,SR,status,TA,status,DirAvg,status,SpdAvg,
2011-05-19, 00:00:04,VALID,919.186,VALID,0,VALID,97.473,VALID,0,VALID,19.9953,VALID,326,VALID,0.472266,
2011-05-19, 00:01:04,VALID,919.192,VALID,0,VALID,97.4654,VALID,0,VALID,20.0148,VALID,325,VALID,0.437109,
2011-05-19, 00:02:04,VALID,919.199,VALID,0,VALID,97.4882,VALID,0,VALID,19.9953,VALID,325,VALID,0.528906,
2011-05-19, 00:03:04,VALID,919.205,VALID,0,VALID,97.4959,VALID,0,VALID,19.9938,VALID,325,VALID,0.645312,
2011-05-19, 00:04:04,VALID,919.195,VALID,0,VALID,97.4882,VALID,0,VALID,20.0133,VALID,325,VALID,0.655859,
2011-05-19, 00:05:04,VALID,919.205,VALID,0,VALID,97.4882,VALID,0,VALID,20.0538,VALID,325,VALID,0.881641,
2011-05-19, 00:06:04,VALID,919.191,VALID,0.2,VALID,97.4959,VALID,0,VALID,20.0343,VALID,326,VALID,1.13047,
2011-05-19, 00:07:04,VALID,919.165,VALID,0,VALID,97.4959,VALID,0,VALID,20.0343,VALID,326,VALID,0.990234,
2011-05-19, 00:08:04,VALID,919.169,VALID,0,VALID,97.4806,VALID,0,VALID,20.0343,VALID,326,VALID,1.07813,
2011-05-19, 00:09:04,VALID,919.185,VALID,0,VALID,97.4882,VALID,0,VALID,20.0148,VALID,326,VALID,0.885156,
2011-05-19, 00:10:04,VALID,919.228,VALID,0,VALID,97.4882,VALID,0,VALID,19.9938,VALID,326,VALID,1.0125,
2011-05-19, 00:11:04,VALID,919.197,VALID,0,VALID,97.4882,VALID,0,VALID,19.9938,VALID,36,VALID,0.772656,
2011-05-19, 00:12:04,VALID,919.205,VALID,0.2,VALID,97.4959,VALID,0,VALID,20.0343,VALID,36,VALID,0.824219,
2011-05-19, 00:13:04,VALID,919.173,VALID,0,VALID,97.5111,VALID,0,VALID,20.0148,VALID,54,VALID,1.09141,
2011-05-19, 00:14:04,VALID,919.189,VALID,0,VALID,97.4654,VALID,0,VALID,20.0148,VALID,94,VALID,1.27031,
2011-05-19, 00:15:04,VALID,919.16,VALID,0,VALID,97.4959,VALID,0,VALID,20.0343,VALID,65,VALID,1.11055,
2011-05-19, 00:16:04,VALID,919.173,VALID,0,VALID,97.5035,VALID,0,VALID,20.0343,VALID,66,VALID,0.997656,
2011-05-19, 00:17:04,VALID,919.169,VALID,0,VALID,97.5111,VALID,0,VALID,20.0343,VALID,87,VALID,1.06289,
2011-05-19, 00:18:04,VALID,919.166,VALID,0.2,VALID,97.4882,VALID,0,VALID,20.0343,VALID,87,VALID,0.991406,
2011-05-19, 00:19:04,VALID,919.164,VALID,0,VALID,97.5035,VALID,0,VALID,20.0538,VALID,87,VALID,0.697266,
2011-05-19, 00:20:04,VALID,919.179,VALID,0,VALID,97.473,VALID,0,VALID,20.0343,VALID,87,VALID,0.749609,
2011-05-19, 00:21:04,VALID,919.191,VALID,0.2,VALID,97.5035,VALID,0,VALID,20.0538,VALID,87,VALID,0.633984,
2011-05-19, 00:22:04,VALID,919.171,VALID,0,VALID,97.4959,VALID,0,VALID,20.0523,VALID,87,VALID,0.796094,
2011-05-19, 00:23:04,VALID,919.195,VALID,0,VALID,97.5035,VALID,0,VALID,20.0538,VALID,87,VALID,0.866016,
2011-05-19, 00:24:04,VALID,919.18,VALID,0,VALID,97.5187,VALID,0,VALID,20.0538,VALID,121,VALID,1.02383,
2011-05-19, 00:25:04,VALID,919.197,VALID,0.2,VALID,97.5111,VALID,0,VALID,20.0538,VALID,128,VALID,1.28164,
2011-05-19, 00:26:04,VALID,919.128,VALID,0,VALID,97.5035,VALID,0,VALID,20.0733,VALID,123,VALID,0.721094,
2011-05-19, 00:27:04,VALID,919.154,VALID,0,VALID,97.5111,VALID,0,VALID,20.0928,VALID,132,VALID,0.960156,
2011-05-19, 00:28:04,VALID,919.147,VALID,0,VALID,97.4882,VALID,0,VALID,20.0523,VALID,131,VALID,1.46367,
2011-05-19, 00:29:04,VALID,919.152,VALID,0.2,VALID,97.5035,VALID,0,VALID,20.1123,VALID,130,VALID,1.37539,
2011-05-19, 00:30:04,VALID,919.111,VALID,0,VALID,97.5035,VALID,0,VALID,20.0913,VALID,99,VALID,1.21445,
2011-05-19, 00:31:04,VALID,919.07,VALID,0,VALID,97.5111,VALID,0,VALID,20.1123,VALID,113,VALID,1.27695,
2011-05-19, 00:32:04,VALID,919.062,VALID,0.2,VALID,97.4959,VALID,0,VALID,20.0913,VALID,87,VALID,1.00664,
2011-05-19, 00:33:04,VALID,919.01,VALID,0,VALID,97.5035,VALID,0,VALID,20.0718,VALID,129,VALID,1.54453,
2011-05-19, 00:34:04,VALID,918.97,VALID,0,VALID,97.5035,VALID,0,VALID,20.0523,VALID,138,VALID,1.53828,
2011-05-19, 00:35:04,VALID,918.948,VALID,0.2,VALID,97.4806,VALID,0.107441,VALID,20.0523,VALID,129,VALID,0.689844,
2011-05-19, 00:36:04,VALID,918.924,VALID,0,VALID,97.4882,VALID,0,VALID,20.0523,VALID,126,VALID,1.72148,
2011-05-19, 00:37:04,VALID,918.897,VALID,0,VALID,97.4959,VALID,0,VALID,20.0148,VALID,110,VALID,1.15898,
2011-05-19, 00:38:04,VALID,918.882,VALID,0.2,VALID,97.5035,VALID,0,VALID,20.0133,VALID,121,VALID,1.05313,
2011-05-19, 00:39:04,VALID,918.833,VALID,0,VALID,97.4882,VALID,0,VALID,19.9938,VALID,134,VALID,1.66133,
2011-05-19, 00:40:04,VALID,918.777,VALID,0,VALID,97.5111,VALID,0,VALID,20.0343,VALID,125,VALID,1.96094,
2011-05-19, 00:41:04,VALID,918.78,VALID,0.2,VALID,97.4959,VALID,0,VALID,19.9938,VALID,133,VALID,2.29453,
2011-05-19, 00:42:04,VALID,918.777,VALID,0,VALID,97.4959,VALID,0,VALID,20.0148,VALID,132,VALID,1.79062,
2011-05-19, 00:43:04,VALID,918.722,VALID,0,VALID,97.473,VALID,0,VALID,19.9548,VALID,133,VALID,1.3543,
2011-05-19, 00:44:04,VALID,918.671,VALID,0.2,VALID,97.4959,VALID,0,VALID,19.9353,VALID,127,VALID,1.63437,
2011-05-19, 00:45:04,VALID,918.658,VALID,0,VALID,97.5111,VALID,0,VALID,19.9353,VALID,114,VALID,1.16719,
2011-05-19, 00:46:04,VALID,918.645,VALID,0.2,VALID,97.5035,VALID,0,VALID,19.9368,VALID,128,VALID,1.3957,
2011-05-19, 00:47:04,VALID,918.617,VALID,0.2,VALID,97.5111,VALID,0,VALID,19.9173,VALID,133,VALID,1.33359,
2011-05-19, 00:48:04,VALID,918.583,VALID,0,VALID,97.4806,VALID,0,VALID,19.8963,VALID,122,VALID,0.710156,
2011-05-19, 00:49:04,VALID,918.614,VALID,0.2,VALID,97.5111,VALID,0,VALID,19.9173,VALID,90,VALID,0.980469,
2011-05-19, 00:50:04,VALID,918.597,VALID,0.2,VALID,97.5111,VALID,0,VALID,19.9173,VALID,131,VALID,1.81992,
2011-05-19, 00:51:04,VALID,918.595,VALID,0.2,VALID,97.4959,VALID,0,VALID,19.8963,VALID,106,VALID,0.848828,
2011-05-19, 00:52:04,VALID,918.605,VALID,0.2,VALID,97.4959,VALID,0,VALID,19.8768,VALID,122,VALID,0.942187,
2011-05-19, 00:53:04,VALID,918.605,VALID,0.2,VALID,97.5187,VALID,0,VALID,19.8768,VALID,101,VALID,1.0457,
2011-05-19, 00:54:04,VALID,918.592,VALID,0.2,VALID,97.5035,VALID,0,VALID,19.8978,VALID,126,VALID,1.0293,
2011-05-19, 00:55:04,VALID,918.594,VALID,0.2,VALID,97.5111,VALID,0,VALID,19.8573,VALID,107,VALID,1.68867,
2011-05-19, 00:56:04,VALID,918.588,VALID,0.2,VALID,97.5187,VALID,0,VALID,19.8378,VALID,116,VALID,1.07891,
2011-05-19, 00:57:04,VALID,918.631,VALID,0.4,VALID,97.5187,VALID,0,VALID,19.8378,VALID,110,VALID,1.06133,
2011-05-19, 00:58:04,VALID,918.61,VALID,0.2,VALID,97.5187,VALID,0,VALID,19.8588,VALID,82,VALID,1.74961,
2011-05-19, 00:59:04,VALID,918.593,VALID,0.4,VALID,97.534,VALID,0,VALID,19.8573,VALID,119,VALID,1.20352,
2011-05-19, 01:00:04,VALID,918.601,VALID,0.2,VALID,97.5187,VALID,0,VALID,19.8588,VALID,93,VALID,1.25898,
2011-05-19, 01:01:04,VALID,918.575,VALID,0,VALID,97.5416,VALID,0,VALID,19.7988,VALID,67,VALID,1.4832,
2011-05-19, 01:02:04,VALID,918.597,VALID,0.4,VALID,97.5035,VALID,0,VALID,19.7808,VALID,74,VALID,1.98242,
2011-05-19, 01:03:04,VALID,918.574,VALID,0.2,VALID,97.5187,VALID,0,VALID,19.7613,VALID,107,VALID,1.04727,
2011-05-19, 01:04:04,VALID,918.532,VALID,0.4,VALID,97.534,VALID,0,VALID,19.7208,VALID,91,VALID,1.78164,
2011-05-19, 01:05:04,VALID,918.534,VALID,0.4,VALID,97.534,VALID,0,VALID,19.7013,VALID,97,VALID,1.12422,
2011-05-19, 01:06:04,VALID,918.522,VALID,0.4,VALID,97.534,VALID,0,VALID,19.7418,VALID,104,VALID,1.21211,
2011-05-19, 01:07:04,VALID,918.518,VALID,0.6,VALID,97.5416,VALID,0,VALID,19.7418,VALID,116,VALID,1.58203,
2011-05-19, 01:08:04,VALID,918.477,VALID,0.4,VALID,97.5187,VALID,0.107441,VALID,19.7208,VALID,127,VALID,1.06602,
2011-05-19, 01:09:04,VALID,918.432,VALID,0.4,VALID,97.5264,VALID,0,VALID,19.7013,VALID,120,VALID,0.923047,
2011-05-19, 01:10:04,VALID,918.42,VALID,0.4,VALID,97.534,VALID,0,VALID,19.7223,VALID,112,VALID,0.479688,
2011-05-19, 01:11:04,VALID,918.378,VALID,0.4,VALID,97.5264,VALID,0,VALID,19.6248,VALID,112,VALID,0.830078,
2011-05-19, 01:12:04,VALID,918.304,VALID,0.2,VALID,97.5492,VALID,0,VALID,19.5858,VALID,112,VALID,0.766016,
2011-05-19, 01:13:04,VALID,918.323,VALID,0.4,VALID,97.5416,VALID,0,VALID,19.5468,VALID,112,VALID,0.647266,
2011-05-19, 01:14:04,VALID,918.302,VALID,0.2,VALID,97.534,VALID,0,VALID,19.5273,VALID,112,VALID,0.363281,
2011-05-19, 01:15:04,VALID,918.276,VALID,0.2,VALID,97.5645,VALID,0,VALID,19.4883,VALID,112,VALID,0.362891,
2011-05-19, 01:16:04,VALID,918.27,VALID,0.4,VALID,97.5645,VALID,0,VALID,19.4673,VALID,112,VALID,0.671484,
2011-05-19, 01:17:04,VALID,918.222,VALID,0.2,VALID,97.5721,VALID,0,VALID,19.4688,VALID,112,VALID,0.595703,
2011-05-19, 01:18:04,VALID,918.228,VALID,0,VALID,97.5721,VALID,0,VALID,19.4688,VALID,112,VALID,0.514844,
2011-05-19, 01:19:04,VALID,918.233,VALID,0.2,VALID,97.5645,VALID,0,VALID,19.4688,VALID,112,VALID,0.575781,
2011-05-19, 01:20:04,VALID,918.203,VALID,0.2,VALID,97.5721,VALID,0,VALID,19.4688,VALID,112,VALID,0.490625,
2011-05-19, 01:21:04,VALID,918.156,VALID,0.2,VALID,97.5797,VALID,0,VALID,19.4673,VALID,112,VALID,0.391797,
2011-05-19, 01:22:04,VALID,918.15,VALID,0,VALID,97.5797,VALID,0,VALID,19.5078,VALID,112,VALID,0.251172,
2011-05-19, 01:23:04,VALID,918.13,VALID,0.2,VALID,97.5797,VALID,0,VALID,19.5468,VALID,112,VALID,0.278906,
2011-05-19, 01:24:04,VALID,918.102,VALID,0.2,VALID,97.5721,VALID,0,VALID,19.5468,VALID,112,VALID,0.267969,
2011-05-19, 01:25:04,VALID,918.109,VALID,0,VALID,97.5797,VALID,0,VALID,19.5453,VALID,112,VALID,0.352344,
2011-05-19, 01:26:04,VALID,918.09,VALID,0.2,VALID,97.5721,VALID,0,VALID,19.5453,VALID,112,VALID,0.247656,
2011-05-19, 01:27:04,VALID,918.067,VALID,0,VALID,97.5721,VALID,0,VALID,19.5858,VALID,113,VALID,0.344922,
2011-05-19, 01:28:04,VALID,918.061,VALID,0.2,VALID,97.5721,VALID,0,VALID,19.5858,VALID,112,VALID,0.2375,
2011-05-19, 01:29:04,VALID,918.041,VALID,0,VALID,97.5873,VALID,0,VALID,19.6038,VALID,111,VALID,0.188281,
2011-05-19, 01:30:04,VALID,918.006,VALID,0,VALID,97.5873,VALID,0,VALID,19.6053,VALID,112,VALID,0.551953,
2011-05-19, 01:31:04,VALID,917.987,VALID,0.2,VALID,97.5721,VALID,0,VALID,19.6038,VALID,112,VALID,0.529297,
2011-05-19, 01:32:04,VALID,917.931,VALID,0,VALID,97.5645,VALID,0,VALID,19.6053,VALID,112,VALID,0.504297,
2011-05-19, 01:33:04,VALID,917.912,VALID,0,VALID,97.5569,VALID,0.107441,VALID,19.6053,VALID,112,VALID,0.474609,
2011-05-19, 01:34:04,VALID,917.875,VALID,0,VALID,97.5873,VALID,0,VALID,19.6053,VALID,112,VALID,0.708203,
2011-05-19, 01:35:04,VALID,917.852,VALID,0,VALID,97.5569,VALID,0,VALID,19.5648,VALID,112,VALID,0.965234,
2011-05-19, 01:36:04,VALID,917.823,VALID,0.2,VALID,97.5797,VALID,0,VALID,19.5858,VALID,173,VALID,1.07344,
2011-05-19, 01:37:04,VALID,917.776,VALID,0,VALID,97.5721,VALID,0,VALID,19.5858,VALID,165,VALID,1.28789,
2011-05-19, 01:38:04,VALID,917.734,VALID,0,VALID,97.5569,VALID,0,VALID,19.5858,VALID,168,VALID,1.51406,
2011-05-19, 01:39:04,VALID,917.734,VALID,0,VALID,97.5797,VALID,0,VALID,19.6053,VALID,172,VALID,1.22422,
2011-05-19, 01:40:04,VALID,917.728,VALID,0,VALID,97.5721,VALID,0,VALID,19.5858,VALID,158,VALID,1.33555,
2011-05-19, 01:41:04,VALID,917.68,VALID,0,VALID,97.5645,VALID,0,VALID,19.5858,VALID,169,VALID,0.757031,
2011-05-19, 01:42:04,VALID,917.66,VALID,0,VALID,97.595,VALID,0,VALID,19.5663,VALID,169,VALID,1.06953,
2011-05-19, 01:43:04,VALID,917.626,VALID,0,VALID,97.5721,VALID,0,VALID,19.5663,VALID,166,VALID,1.24141,
2011-05-19, 01:44:04,VALID,917.607,VALID,0.2,VALID,97.5873,VALID,0,VALID,19.5468,VALID,172,VALID,1.30313,
2011-05-19, 01:45:04,VALID,917.596,VALID,0,VALID,97.5721,VALID,0,VALID,19.5468,VALID,159,VALID,1.23203,
2011-05-19, 01:46:04,VALID,917.584,VALID,0,VALID,97.595,VALID,0,VALID,19.5468,VALID,151,VALID,1.12148,
2011-05-19, 01:47:04,VALID,917.625,VALID,0,VALID,97.595,VALID,0,VALID,19.5078,VALID,154,VALID,1.10078,
2011-05-19, 01:48:04,VALID,917.585,VALID,0,VALID,97.595,VALID,0,VALID,19.5078,VALID,125,VALID,1.2,
2011-05-19, 01:49:04,VALID,917.599,VALID,0,VALID,97.6026,VALID,0,VALID,19.4883,VALID,114,VALID,0.532422,
2011-05-19, 01:50:04,VALID,917.59,VALID,0,VALID,97.6102,VALID,0,VALID,19.4883,VALID,137,VALID,1.49922,
2011-05-19, 01:51:04,VALID,917.575,VALID,0.2,VALID,97.6178,VALID,0,VALID,19.4478,VALID,165,VALID,0.858594,
2011-05-19, 01:52:04,VALID,917.596,VALID,0,VALID,97.5873,VALID,0,VALID,19.4493,VALID,165,VALID,0.883203,
2011-05-19, 01:53:04,VALID,917.597,VALID,0,VALID,97.6102,VALID,0,VALID,19.4493,VALID,165,VALID,0.714844,
2011-05-19, 01:54:04,VALID,917.568,VALID,0,VALID,97.6102,VALID,0,VALID,19.4298,VALID,165,VALID,0.811328,
2011-05-19, 01:55:04,VALID,917.542,VALID,0,VALID,97.5873,VALID,0,VALID,19.4103,VALID,165,VALID,0.867969,
2011-05-19, 01:56:04,VALID,917.535,VALID,0,VALID,97.6178,VALID,0,VALID,19.4298,VALID,165,VALID,0.816406,
2011-05-19, 01:57:04,VALID,917.521,VALID,0,VALID,97.595,VALID,0,VALID,19.4103,VALID,166,VALID,0.575781,
2011-05-19, 01:58:04,VALID,917.499,VALID,0,VALID,97.595,VALID,0,VALID,19.3713,VALID,174,VALID,0.859375,
2011-05-19, 01:59:04,VALID,917.484,VALID,0,VALID,97.6026,VALID,0,VALID,19.3908,VALID,174,VALID,0.555469,
2011-05-19, 02:00:04,VALID,917.497,VALID,0,VALID,97.595,VALID,0,VALID,19.3128,VALID,221,VALID,0.795313,
2011-05-19, 02:01:04,VALID,917.472,VALID,0,VALID,97.595,VALID,0,VALID,19.3128,VALID,221,VALID,1.07617,
2011-05-19, 02:02:04,VALID,917.469,VALID,0,VALID,97.595,VALID,0,VALID,19.2738,VALID,221,VALID,0.628516,
2011-05-19, 02:03:04,VALID,917.438,VALID,0,VALID,97.6102,VALID,0,VALID,19.2543,VALID,221,VALID,0.488281,
2011-05-19, 02:04:04,VALID,917.452,VALID,0,VALID,97.6178,VALID,0,VALID,19.2543,VALID,221,VALID,0.655469,
2011-05-19, 02:05:04,VALID,917.449,VALID,0,VALID,97.6255,VALID,0,VALID,19.2153,VALID,221,VALID,0.753516,
2011-05-19, 02:06:04,VALID,917.44,VALID,0,VALID,97.6178,VALID,0,VALID,19.2153,VALID,221,VALID,0.953906,
2011-05-19, 02:07:04,VALID,917.48,VALID,0,VALID,97.6102,VALID,0,VALID,19.2543,VALID,246,VALID,1.10078,
2011-05-19, 02:08:04,VALID,917.438,VALID,0,VALID,97.6407,VALID,0,VALID,19.2348,VALID,232,VALID,1.25273,
2011-05-19, 02:09:04,VALID,917.471,VALID,0,VALID,97.6255,VALID,0,VALID,19.2153,VALID,231,VALID,0.701172,
2011-05-19, 02:10:04,VALID,917.468,VALID,0,VALID,97.6331,VALID,0,VALID,19.2153,VALID,231,VALID,0.346094,
2011-05-19, 02:11:04,VALID,917.463,VALID,0.2,VALID,97.6407,VALID,0,VALID,19.2153,VALID,231,VALID,0.519922,
2011-05-19, 02:12:04,VALID,917.456,VALID,0,VALID,97.6407,VALID,0,VALID,19.1763,VALID,231,VALID,0.844531,
2011-05-19, 02:13:04,VALID,917.472,VALID,0,VALID,97.6483,VALID,0,VALID,19.1568,VALID,231,VALID,0.794922,
2011-05-19, 02:14:04,VALID,917.452,VALID,0,VALID,97.6483,VALID,0,VALID,19.1373,VALID,215,VALID,0.736719,
2011-05-19, 02:15:04,VALID,917.476,VALID,0,VALID,97.6255,VALID,0,VALID,19.1373,VALID,221,VALID,0.732031,
2011-05-19, 02:16:04,VALID,917.485,VALID,0,VALID,97.6331,VALID,0,VALID,19.1178,VALID,222,VALID,0.928906,
2011-05-19, 02:17:04,VALID,917.478,VALID,0,VALID,97.6407,VALID,0,VALID,19.1178,VALID,222,VALID,0.732031,
2011-05-19, 02:18:04,VALID,917.488,VALID,0,VALID,97.6331,VALID,0,VALID,19.1178,VALID,233,VALID,1.04102,
2011-05-19, 02:19:04,VALID,917.479,VALID,0,VALID,97.6102,VALID,0,VALID,19.1373,VALID,263,VALID,1.10273,
2011-05-19, 02:20:04,VALID,917.493,VALID,0,VALID,97.6483,VALID,0,VALID,19.1373,VALID,263,VALID,0.430469,
2011-05-19, 02:21:04,VALID,917.54,VALID,0,VALID,97.6407,VALID,0,VALID,19.1373,VALID,263,VALID,0.701953,
2011-05-19, 02:22:04,VALID,917.508,VALID,0,VALID,97.6407,VALID,0,VALID,19.1568,VALID,263,VALID,0.741016,
2011-05-19, 02:23:04,VALID,917.514,VALID,0,VALID,97.6331,VALID,0,VALID,19.1958,VALID,263,VALID,0.764844,
2011-05-19, 02:24:04,VALID,917.519,VALID,0,VALID,97.6407,VALID,0,VALID,19.1958,VALID,263,VALID,0.889844,
2011-05-19, 02:25:04,VALID,917.489,VALID,0,VALID,97.6483,VALID,0,VALID,19.1958,VALID,234,VALID,1.01016,
2011-05-19, 02:26:04,VALID,917.521,VALID,0,VALID,97.6407,VALID,0,VALID,19.1973,VALID,234,VALID,0.610547,
2011-05-19, 02:27:04,VALID,917.507,VALID,0,VALID,97.656,VALID,0,VALID,19.1568,VALID,246,VALID,1.10039,
2011-05-19, 02:28:04,VALID,917.511,VALID,0,VALID,97.6483,VALID,0,VALID,19.1568,VALID,248,VALID,0.814453,
2011-05-19, 02:29:04,VALID,917.509,VALID,0,VALID,97.6636,VALID,0,VALID,19.1373,VALID,232,VALID,1.03828,
2011-05-19, 02:30:04,VALID,917.497,VALID,0,VALID,97.656,VALID,0,VALID,19.1178,VALID,246,VALID,0.560547,
2011-05-19, 02:31:04,VALID,917.468,VALID,0,VALID,97.656,VALID,0,VALID,19.1178,VALID,246,VALID,0.641016,
2011-05-19, 02:32:04,VALID,917.498,VALID,0,VALID,97.6636,VALID,0,VALID,19.1178,VALID,246,VALID,0.714063,
2011-05-19, 02:33:04,VALID,917.503,VALID,0,VALID,97.6483,VALID,0,VALID,19.1178,VALID,246,VALID,0.363672,
2011-05-19, 02:34:04,VALID,917.476,VALID,0,VALID,97.6636,VALID,0,VALID,19.1178,VALID,246,VALID,0.445313,
2011-05-19, 02:35:04,VALID,917.489,VALID,0,VALID,97.656,VALID,0,VALID,19.1388,VALID,246,VALID,0,
2011-05-19, 02:36:04,VALID,917.491,VALID,0,VALID,97.6483,VALID,0,VALID,19.1373,VALID,246,VALID,0.614844,
2011-05-19, 02:37:04,VALID,917.467,VALID,0,VALID,97.6407,VALID,0,VALID,19.1373,VALID,246,VALID,0.0273438,
2011-05-19, 02:38:04,VALID,917.472,VALID,0,VALID,97.6636,VALID,0,VALID,19.1583,VALID,246,VALID,0.475781,
2011-05-19, 02:39:04,VALID,917.472,VALID,0,VALID,97.656,VALID,0,VALID,19.1568,VALID,246,VALID,0.947656,
2011-05-19, 02:40:04,VALID,917.469,VALID,0,VALID,97.656,VALID,0,VALID,19.1373,VALID,246,VALID,0.941406,
2011-05-19, 02:41:04,VALID,917.448,VALID,0,VALID,97.656,VALID,0,VALID,19.1178,VALID,246,VALID,0.550781,
2011-05-19, 02:42:04,VALID,917.451,VALID,0,VALID,97.6483,VALID,0,VALID,19.1568,VALID,246,VALID,0.254687,
2011-05-19, 02:43:04,VALID,917.418,VALID,0,VALID,97.6636,VALID,0,VALID,19.1568,VALID,246,VALID,0.292188,
2011-05-19, 02:44:04,VALID,917.375,VALID,0,VALID,97.6331,VALID,0,VALID,19.1763,VALID,246,VALID,0,
2011-05-19, 02:45:04,VALID,917.366,VALID,0,VALID,97.6712,VALID,0,VALID,19.1568,VALID,246,VALID,0,
2011-05-19, 02:46:04,VALID,917.355,VALID,0.2,VALID,97.6865,VALID,0,VALID,19.1568,VALID,246,VALID,0.107031,
2011-05-19, 02:47:04,VALID,917.381,VALID,0,VALID,97.6712,VALID,0,VALID,19.1568,VALID,246,VALID,0,
2011-05-19, 02:48:04,VALID,917.322,VALID,0,VALID,97.6636,VALID,0,VALID,19.1568,VALID,246,VALID,0.357812,
2011-05-19, 02:49:04,VALID,917.378,VALID,0,VALID,97.656,VALID,0,VALID,19.1568,VALID,246,VALID,0.430859,
2011-05-19, 02:50:04,VALID,917.371,VALID,0,VALID,97.6712,VALID,0,VALID,19.1763,VALID,246,VALID,0,
2011-05-19, 02:51:04,VALID,917.364,VALID,0,VALID,97.6636,VALID,0,VALID,19.1763,VALID,246,VALID,0.0816406,
2011-05-19, 02:52:04,VALID,917.345,VALID,0,VALID,97.6865,VALID,0,VALID,19.1568,VALID,246,VALID,0.133203,
2011-05-19, 02:53:04,VALID,917.354,VALID,0,VALID,97.6712,VALID,0,VALID,19.1763,VALID,246,VALID,0.0984375,
2011-05-19, 02:54:04,VALID,917.394,VALID,0,VALID,97.6636,VALID,0,VALID,19.1973,VALID,246,VALID,0.00585938,
2011-05-19, 02:55:04,VALID,917.337,VALID,0,VALID,97.6788,VALID,0,VALID,19.1568,VALID,246,VALID,0,
2011-05-19, 02:56:04,VALID,917.379,VALID,0,VALID,97.6788,VALID,0,VALID,19.1749,VALID,246,VALID,0,
2011-05-19, 02:57:04,VALID,917.35,VALID,0,VALID,97.6788,VALID,0,VALID,19.1778,VALID,246,VALID,0.009375,
2011-05-19, 02:58:04,VALID,917.371,VALID,0,VALID,97.6712,VALID,0,VALID,19.1763,VALID,246,VALID,0.0101562,
2011-05-19, 02:59:04,VALID,917.389,VALID,0,VALID,97.6712,VALID,0,VALID,19.1973,VALID,246,VALID,0.0738281,
2011-05-19, 03:00:04,VALID,917.346,VALID,0,VALID,97.6788,VALID,0,VALID,19.1568,VALID,246,VALID,0.173047,
2011-05-19, 03:01:04,VALID,917.399,VALID,0,VALID,97.6483,VALID,0,VALID,19.1778,VALID,246,VALID,0,
2011-05-19, 03:02:04,VALID,917.386,VALID,0,VALID,97.656,VALID,0,VALID,19.1568,VALID,246,VALID,0.375391,
2011-05-19, 03:03:04,VALID,917.409,VALID,0,VALID,97.6712,VALID,0,VALID,19.1373,VALID,246,VALID,0.577344,
2011-05-19, 03:04:04,VALID,917.421,VALID,0,VALID,97.6636,VALID,0,VALID,19.0983,VALID,246,VALID,0.800781,
2011-05-19, 03:05:04,VALID,917.395,VALID,0,VALID,97.6788,VALID,0,VALID,19.1178,VALID,247,VALID,0.831641,
2011-05-19, 03:06:04,VALID,917.389,VALID,0,VALID,97.6788,VALID,0,VALID,19.0788,VALID,246,VALID,0.417578,
2011-05-19, 03:07:04,VALID,917.405,VALID,0,VALID,97.6712,VALID,0,VALID,19.0788,VALID,246,VALID,0.275391,
2011-05-19, 03:08:04,VALID,917.401,VALID,0,VALID,97.6712,VALID,0,VALID,19.0788,VALID,246,VALID,0.398438,
2011-05-19, 03:09:04,VALID,917.378,VALID,0,VALID,97.6788,VALID,0,VALID,19.0593,VALID,246,VALID,0.249219,
2011-05-19, 03:10:04,VALID,917.383,VALID,0,VALID,97.6712,VALID,0,VALID,19.0398,VALID,246,VALID,0.532031,
2011-05-19, 03:11:04,VALID,917.398,VALID,0,VALID,97.6788,VALID,0,VALID,19.0803,VALID,246,VALID,0.330078,
2011-05-19, 03:12:04,VALID,917.384,VALID,0,VALID,97.6788,VALID,0,VALID,19.0593,VALID,246,VALID,0.46875,
2011-05-19, 03:13:04,VALID,917.351,VALID,0,VALID,97.6865,VALID,0,VALID,19.0593,VALID,246,VALID,0.465625,
2011-05-19, 03:14:04,VALID,917.353,VALID,0,VALID,97.6941,VALID,0,VALID,19.0593,VALID,246,VALID,0.527344,
2011-05-19, 03:15:04,VALID,917.353,VALID,0,VALID,97.6941,VALID,0,VALID,19.0608,VALID,246,VALID,0.517187,
2011-05-19, 03:16:04,VALID,917.347,VALID,0,VALID,97.6788,VALID,0,VALID,19.0398,VALID,246,VALID,0.448828,
2011-05-19, 03:17:04,VALID,917.344,VALID,0,VALID,97.6941,VALID,0,VALID,19.0398,VALID,246,VALID,0.508594,
2011-05-19, 03:18:04,VALID,917.341,VALID,0,VALID,97.6941,VALID,0,VALID,19.0593,VALID,246,VALID,0.723437,
2011-05-19, 03:19:04,VALID,917.356,VALID,0,VALID,97.6865,VALID,0,VALID,19.0998,VALID,246,VALID,0.545313,
2011-05-19, 03:20:04,VALID,917.342,VALID,0,VALID,97.6865,VALID,0,VALID,19.1193,VALID,246,VALID,0.567578,
2011-05-19, 03:21:04,VALID,917.302,VALID,0,VALID,97.6865,VALID,0,VALID,19.0788,VALID,246,VALID,0.386328,
2011-05-19, 03:22:04,VALID,917.289,VALID,0,VALID,97.6941,VALID,0,VALID,19.0788,VALID,246,VALID,0.502344,
2011-05-19, 03:23:04,VALID,917.273,VALID,0,VALID,97.6941,VALID,0,VALID,19.0998,VALID,246,VALID,0.368359,
2011-05-19, 03:24:04,VALID,917.257,VALID,0,VALID,97.7093,VALID,0,VALID,19.1193,VALID,246,VALID,0.491016,
2011-05-19, 03:25:04,VALID,917.257,VALID,0,VALID,97.7093,VALID,0,VALID,19.0788,VALID,246,VALID,0.585547,
2011-05-19, 03:26:04,VALID,917.245,VALID,0,VALID,97.7017,VALID,0,VALID,19.0788,VALID,246,VALID,0.448438,
2011-05-19, 03:27:04,VALID,917.22,VALID,0,VALID,97.7017,VALID,0,VALID,19.0983,VALID,246,VALID,0.384375,
2011-05-19, 03:28:04,VALID,917.216,VALID,0,VALID,97.6636,VALID,0,VALID,19.1583,VALID,246,VALID,0.460156,
2011-05-19, 03:29:04,VALID,917.253,VALID,0,VALID,97.7017,VALID,0,VALID,19.1373,VALID,246,VALID,0.164063,
2011-05-19, 03:30:04,VALID,917.235,VALID,0,VALID,97.6941,VALID,0.107441,VALID,19.1568,VALID,246,VALID,0.123438,
2011-05-19, 03:31:04,VALID,917.244,VALID,0,VALID,97.6941,VALID,0,VALID,19.1568,VALID,246,VALID,0,
2011-05-19, 03:32:04,VALID,917.286,VALID,0,VALID,97.6941,VALID,0,VALID,19.1373,VALID,246,VALID,0,
2011-05-19, 03:33:04,VALID,917.286,VALID,0,VALID,97.6636,VALID,0.107441,VALID,19.1373,VALID,246,VALID,0,
2011-05-19, 03:34:04,VALID,917.295,VALID,0,VALID,97.6712,VALID,0,VALID,19.1164,VALID,246,VALID,0,
2011-05-19, 03:35:04,VALID,917.305,VALID,0.2,VALID,97.6865,VALID,0,VALID,19.1359,VALID,246,VALID,0.321875,
2011-05-19, 03:36:04,VALID,917.303,VALID,0,VALID,97.6788,VALID,0.107441,VALID,19.1568,VALID,246,VALID,0.512891,
2011-05-19, 03:37:04,VALID,917.351,VALID,0,VALID,97.6941,VALID,0,VALID,19.1359,VALID,246,VALID,0.487891,
2011-05-19, 03:38:04,VALID,917.295,VALID,0,VALID,97.6941,VALID,0,VALID,19.1359,VALID,246,VALID,0.776953,
2011-05-19, 03:39:04,VALID,917.297,VALID,0,VALID,97.6865,VALID,0,VALID,19.1568,VALID,203,VALID,1.28125,
2011-05-19, 03:40:04,VALID,917.285,VALID,0,VALID,97.6788,VALID,0,VALID,19.1373,VALID,203,VALID,0.896094,
2011-05-19, 03:41:04,VALID,917.265,VALID,0,VALID,97.6865,VALID,0,VALID,19.1164,VALID,203,VALID,0.542578,
2011-05-19, 03:42:04,VALID,917.256,VALID,0,VALID,97.7017,VALID,0.107441,VALID,19.1164,VALID,203,VALID,0.386328,
2011-05-19, 03:43:04,VALID,917.249,VALID,0,VALID,97.7017,VALID,0,VALID,19.1178,VALID,203,VALID,0.560547,
2011-05-19, 03:44:04,VALID,917.253,VALID,0,VALID,97.6788,VALID,0,VALID,19.0983,VALID,203,VALID,0.682813,